Time,TemperatureF,DewpointF,PressureIn,WindDirection,WindDirectionDegrees,WindSpeedMPH,WindSpeedGustMPH,Humidity,HourlyPrecipIn,Conditions,Clouds,dailyrainin,SoftwareType,DateUTC
2014-01-25 00:01:00,17.4,-17.8,30.26,South,180,0.0,2.4,19,0.00,,,0.00,WUHU216HW,2014-01-25 05:01:00,
2014-01-25 00:06:00,17.2,-18.0,30.26,South,180,0.6,2.4,19,0.00,,,0.00,WUHU216HW,2014-01-25 05:06:00,
2014-01-25 00:11:00,17.2,-18.0,30.26,South,180,0.0,0.6,19,0.00,,,0.00,WUHU216HW,2014-01-25 05:11:00,
2014-01-25 00:16:00,17.0,-18.2,30.25,South,180,0.0,0.6,19,0.00,,,0.00,WUHU216HW,2014-01-25 05:16:00,
2014-01-25 00:21:00,17.0,-18.2,30.26,South,180,0.0,0.0,19,0.00,,,0.00,WUHU216HW,2014-01-25 05:21:00,
2014-01-25 00:26:00,17.0,-18.2,30.25,South,180,0.0,8.0,19,0.00,,,0.00,WUHU216HW,2014-01-25 05:26:00,
2014-01-25 00:31:00,16.8,-18.3,30.26,South,180,0.0,8.0,19,0.00,,,0.00,WUHU216HW,2014-01-25 05:31:00,
2014-01-25 00:36:00,16.8,-18.3,30.25,South,180,0.0,0.0,19,0.00,,,0.00,WUHU216HW,2014-01-25 05:36:00,
2014-01-25 00:41:00,16.7,-18.4,30.25,South,180,2.0,3.1,19,0.00,,,0.00,WUHU216HW,2014-01-25 05:41:00,
2014-01-25 00:46:00,16.5,-18.6,30.25,SSW,203,0.0,3.1,19,0.00,,,0.00,WUHU216HW,2014-01-25 05:46:00,
2014-01-25 00:51:00,16.5,-18.6,30.24,South,180,0.0,0.0,19,0.00,,,0.00,WUHU216HW,2014-01-25 05:51:00,
2014-01-25 00:56:00,16.3,-18.7,30.24,South,180,0.8,0.8,19,0.00,,,0.00,WUHU216HW,2014-01-25 05:56:00,
2014-01-25 01:01:00,16.3,-18.7,30.24,South,180,0.0,0.8,19,0.00,,,0.00,WUHU216HW,2014-01-25 06:01:00,
2014-01-25 01:06:00,16.3,-18.7,30.23,South,180,0.0,0.0,19,0.00,,,0.00,WUHU216HW,2014-01-25 06:06:00,
2014-01-25 01:11:00,16.3,-18.7,30.22,SSW,203,0.0,0.0,19,0.00,,,0.00,WUHU216HW,2014-01-25 06:11:00,
2014-01-25 01:16:00,16.1,-18.9,30.22,South,180,0.0,0.0,19,0.00,,,0.00,WUHU216HW,2014-01-25 06:16:00,
2014-01-25 01:21:00,16.1,-18.9,30.22,South,180,0.0,2.6,19,0.00,,,0.00,WUHU216HW,2014-01-25 06:21:00,
2014-01-25 01:26:00,16.1,-18.9,30.22,South,180,0.0,2.6,19,0.00,,,0.00,WUHU216HW,2014-01-25 06:26:00,
2014-01-25 01:31:00,16.1,-18.9,30.22,South,180,0.0,0.0,19,0.00,,,0.00,WUHU216HW,2014-01-25 06:31:00,
2014-01-25 01:36:00,16.1,-18.9,30.21,South,180,0.0,0.0,19,0.00,,,0.00,WUHU216HW,2014-01-25 06:36:00,
2014-01-25 01:41:00,15.9,-19.1,30.21,NNE,23,2.4,2.4,19,0.00,,,0.00,WUHU216HW,2014-01-25 06:41:00,
2014-01-25 01:46:00,15.9,-19.1,30.20,South,180,0.0,2.4,19,0.00,,,0.00,WUHU216HW,2014-01-25 06:46:00,
2014-01-25 01:51:00,15.9,-19.1,30.20,South,180,0.0,0.0,19,0.00,,,0.00,WUHU216HW,2014-01-25 06:51:00,
2014-01-25 01:56:00,15.8,-19.2,30.20,South,180,0.0,0.0,19,0.00,,,0.00,WUHU216HW,2014-01-25 06:56:00,
2014-01-25 02:01:00,15.8,-19.2,30.19,South,180,0.0,0.0,19,0.00,,,0.00,WUHU216HW,2014-01-25 07:01:00,
2014-01-25 02:06:00,15.8,-19.2,30.19,South,180,0.0,0.0,19,0.00,,,0.00,WUHU216HW,2014-01-25 07:06:00,
2014-01-25 02:11:00,15.9,-19.1,30.18,South,180,0.0,0.0,19,0.00,,,0.00,WUHU216HW,2014-01-25 07:11:00,
2014-01-25 02:16:00,15.9,-19.1,30.18,South,180,0.0,0.0,19,0.00,,,0.00,WUHU216HW,2014-01-25 07:16:00,
2014-01-25 02:21:00,15.9,-19.1,30.17,NNE,23,0.0,0.0,19,0.00,,,0.00,WUHU216HW,2014-01-25 07:21:00,
2014-01-25 02:26:00,15.9,-19.1,30.17,South,180,0.0,0.0,19,0.00,,,0.00,WUHU216HW,2014-01-25 07:26:00,
2014-01-25 02:31:00,16.1,-18.9,30.16,South,180,0.0,0.0,19,0.00,,,0.00,WUHU216HW,2014-01-25 07:31:00,
2014-01-25 02:36:00,16.1,-18.9,30.16,South,180,8.0,8.0,19,0.00,,,0.00,WUHU216HW,2014-01-25 07:36:00,
2014-01-25 02:41:00,16.1,-18.9,30.16,South,180,2.6,8.0,19,0.00,,,0.00,WUHU216HW,2014-01-25 07:41:00,
2014-01-25 02:46:00,16.1,-18.9,30.15,South,180,0.8,2.6,19,0.00,,,0.00,WUHU216HW,2014-01-25 07:46:00,
2014-01-25 02:51:00,16.1,-18.9,30.14,South,180,0.0,3.1,19,0.00,,,0.00,WUHU216HW,2014-01-25 07:51:00,
2014-01-25 02:56:00,16.1,-18.9,30.15,South,180,0.0,9.1,19,0.00,,,0.00,WUHU216HW,2014-01-25 07:56:00,
2014-01-25 03:01:00,16.3,-18.7,30.15,South,180,6.0,9.1,19,0.00,,,0.00,WUHU216HW,2014-01-25 08:01:00,
2014-01-25 03:06:00,16.1,-18.9,30.14,SSW,203,4.0,6.0,19,0.00,,,0.00,WUHU216HW,2014-01-25 08:06:00,
2014-01-25 03:11:00,16.1,-18.9,30.14,South,180,0.0,6.0,19,0.00,,,0.00,WUHU216HW,2014-01-25 08:11:00,
2014-01-25 03:16:00,15.9,-19.1,30.14,SSW,203,0.0,0.0,19,0.00,,,0.00,WUHU216HW,2014-01-25 08:16:00,
2014-01-25 03:21:00,15.8,-19.2,30.14,South,180,1.3,1.3,19,0.00,,,0.00,WUHU216HW,2014-01-25 08:21:00,
2014-01-25 03:26:00,15.6,-19.3,30.14,South,180,0.0,1.3,19,0.00,,,0.00,WUHU216HW,2014-01-25 08:26:00,
2014-01-25 03:31:00,15.6,-19.3,30.14,South,180,0.0,0.0,19,0.00,,,0.00,WUHU216HW,2014-01-25 08:31:00,
2014-01-25 03:36:00,15.4,-19.5,30.12,South,180,0.0,6.4,19,0.00,,,0.00,WUHU216HW,2014-01-25 08:36:00,
2014-01-25 03:41:00,15.4,-19.5,30.12,NNE,23,0.0,6.4,19,0.00,,,0.00,WUHU216HW,2014-01-25 08:41:00,
2014-01-25 03:46:00,15.2,-19.7,30.12,NNE,23,0.0,5.8,19,0.00,,,0.00,WUHU216HW,2014-01-25 08:46:00,
2014-01-25 03:51:00,15.2,-19.7,30.12,South,180,0.0,0.0,19,0.00,,,0.00,WUHU216HW,2014-01-25 08:51:00,
2014-01-25 03:56:00,15.2,-19.7,30.11,South,180,0.0,0.0,19,0.00,,,0.00,WUHU216HW,2014-01-25 08:56:00,
2014-01-25 04:01:00,15.0,-19.8,30.11,South,180,0.0,0.0,19,0.00,,,0.00,WUHU216HW,2014-01-25 09:01:00,
2014-01-25 04:06:00,15.0,-19.8,30.11,South,180,0.0,0.0,19,0.00,,,0.00,WUHU216HW,2014-01-25 09:06:00,
2014-01-25 04:11:00,15.0,-19.8,30.11,NNE,23,0.0,0.0,19,0.00,,,0.00,WUHU216HW,2014-01-25 09:11:00,
2014-01-25 04:16:00,15.0,-19.8,30.11,NNE,23,0.0,0.0,19,0.00,,,0.00,WUHU216HW,2014-01-25 09:16:00,
2014-01-25 04:21:00,14.9,-19.9,30.10,South,180,0.0,0.0,19,0.00,,,0.00,WUHU216HW,2014-01-25 09:21:00,
2014-01-25 04:26:00,14.7,-20.1,30.10,South,180,0.0,0.0,19,0.00,,,0.00,WUHU216HW,2014-01-25 09:26:00,
2014-01-25 04:31:00,14.7,-20.1,30.10,South,180,0.0,0.0,19,0.00,,,0.00,WUHU216HW,2014-01-25 09:31:00,
2014-01-25 04:36:00,14.7,-20.1,30.09,South,180,0.0,6.0,19,0.00,,,0.00,WUHU216HW,2014-01-25 09:36:00,
2014-01-25 04:41:00,14.7,-20.1,30.09,NNE,23,0.0,6.0,19,0.00,,,0.00,WUHU216HW,2014-01-25 09:41:00,
2014-01-25 04:46:00,14.9,-19.9,30.09,South,180,0.0,0.0,19,0.00,,,0.00,WUHU216HW,2014-01-25 09:46:00,
2014-01-25 04:51:00,14.9,-19.9,30.08,SSW,203,0.0,3.1,19,0.00,,,0.00,WUHU216HW,2014-01-25 09:51:00,
2014-01-25 04:56:00,14.9,-19.9,30.08,South,180,0.0,3.1,19,0.00,,,0.00,WUHU216HW,2014-01-25 09:56:00,
2014-01-25 05:01:00,14.9,-19.9,30.08,South,180,0.0,0.0,19,0.00,,,0.00,WUHU216HW,2014-01-25 10:01:00,
2014-01-25 05:06:00,14.9,-19.9,30.08,South,180,0.0,0.0,19,0.00,,,0.00,WUHU216HW,2014-01-25 10:06:00,
2014-01-25 05:11:00,15.0,-19.8,30.08,South,180,0.0,0.0,19,0.00,,,0.00,WUHU216HW,2014-01-25 10:11:00,
2014-01-25 05:16:00,15.0,-19.8,30.07,South,180,0.0,0.0,19,0.00,,,0.00,WUHU216HW,2014-01-25 10:16:00,
2014-01-25 05:21:00,15.2,-19.7,30.07,South,180,0.0,0.0,19,0.00,,,0.00,WUHU216HW,2014-01-25 10:21:00,
2014-01-25 05:26:00,15.2,-19.7,30.07,South,180,1.3,1.3,19,0.00,,,0.00,WUHU216HW,2014-01-25 10:26:00,
2014-01-25 05:31:00,15.2,-19.7,30.06,South,180,4.0,4.0,19,0.00,,,0.00,WUHU216HW,2014-01-25 10:31:00,
2014-01-25 05:36:00,15.2,-19.7,30.05,SSW,203,3.8,5.8,19,0.00,,,0.00,WUHU216HW,2014-01-25 10:36:00,
2014-01-25 05:41:00,15.4,-19.5,30.04,South,180,0.0,5.8,19,0.00,,,0.00,WUHU216HW,2014-01-25 10:41:00,
2014-01-25 05:46:00,15.4,-19.5,30.04,NNE,23,0.0,6.4,19,0.00,,,0.00,WUHU216HW,2014-01-25 10:46:00,
2014-01-25 05:51:00,15.6,-19.3,30.04,SSW,203,4.2,6.4,19,0.00,,,0.00,WUHU216HW,2014-01-25 10:51:00,
2014-01-25 05:56:00,15.8,-19.2,30.04,South,180,2.9,4.2,19,0.00,,,0.00,WUHU216HW,2014-01-25 10:56:00,
2014-01-25 06:01:00,15.9,-19.1,30.04,SSW,203,0.0,6.2,19,0.00,,,0.00,WUHU216HW,2014-01-25 11:01:00,
2014-01-25 06:06:00,16.1,-18.9,30.04,South,180,2.6,6.2,19,0.00,,,0.00,WUHU216HW,2014-01-25 11:06:00,
2014-01-25 06:11:00,16.3,-18.7,30.04,SSW,203,0.0,6.9,19,0.00,,,0.00,WUHU216HW,2014-01-25 11:11:00,
2014-01-25 06:16:00,16.3,-18.7,30.04,South,180,0.0,6.9,19,0.00,,,0.00,WUHU216HW,2014-01-25 11:16:00,
2014-01-25 06:21:00,16.5,-18.6,30.04,South,180,0.0,1.7,19,0.00,,,0.00,WUHU216HW,2014-01-25 11:21:00,
2014-01-25 06:26:00,16.3,-18.7,30.03,South,180,0.0,1.5,19,0.00,,,0.00,WUHU216HW,2014-01-25 11:26:00,
2014-01-25 06:31:00,16.5,-18.6,30.04,South,180,0.0,1.3,19,0.00,,,0.00,WUHU216HW,2014-01-25 11:31:00,
2014-01-25 06:36:00,16.3,-18.7,30.04,SSW,203,8.7,8.7,19,0.00,,,0.00,WUHU216HW,2014-01-25 11:36:00,
2014-01-25 06:41:00,16.5,-18.6,30.04,South,180,0.0,8.7,19,0.00,,,0.00,WUHU216HW,2014-01-25 11:41:00,
2014-01-25 06:46:00,16.7,-18.4,30.04,South,180,6.4,8.7,19,0.00,,,0.00,WUHU216HW,2014-01-25 11:46:00,
2014-01-25 06:51:00,17.0,-18.2,30.03,South,180,0.0,6.4,19,0.00,,,0.00,WUHU216HW,2014-01-25 11:51:00,
2014-01-25 06:56:00,17.0,-18.2,30.04,South,180,0.0,6.4,19,0.00,,,0.00,WUHU216HW,2014-01-25 11:56:00,
2014-01-25 07:01:00,17.2,-18.0,30.04,SSW,203,4.4,4.4,19,0.00,,,0.00,WUHU216HW,2014-01-25 12:01:00,
2014-01-25 07:06:00,17.0,-18.2,30.03,South,180,1.1,7.6,19,0.00,,,0.00,WUHU216HW,2014-01-25 12:06:00,
2014-01-25 07:11:00,17.0,-18.2,30.02,South,180,0.0,7.6,19,0.00,,,0.00,WUHU216HW,2014-01-25 12:11:00,
2014-01-25 07:16:00,17.0,-18.2,30.02,South,180,2.9,2.9,19,0.00,,,0.00,WUHU216HW,2014-01-25 12:16:00,
2014-01-25 07:21:00,17.2,-18.0,30.02,South,180,1.1,3.8,19,0.00,,,0.00,WUHU216HW,2014-01-25 12:21:00,
2014-01-25 07:26:00,17.2,-18.0,30.02,South,180,3.8,3.8,19,0.00,,,0.00,WUHU216HW,2014-01-25 12:26:00,
2014-01-25 07:31:00,17.6,-17.7,30.02,South,180,6.4,6.4,19,0.00,,,0.00,WUHU216HW,2014-01-25 12:31:00,
2014-01-25 07:36:00,17.7,-17.6,30.02,NNE,23,1.3,6.4,19,0.00,,,0.00,WUHU216HW,2014-01-25 12:36:00,
2014-01-25 07:41:00,17.9,-17.4,30.02,South,180,4.0,6.4,19,0.00,,,0.00,WUHU216HW,2014-01-25 12:41:00,
2014-01-25 07:46:00,18.1,-17.2,30.01,South,180,0.0,4.0,19,0.00,,,0.00,WUHU216HW,2014-01-25 12:46:00,
2014-01-25 07:51:00,18.3,-17.1,30.01,South,180,2.4,3.5,19,0.00,,,0.00,WUHU216HW,2014-01-25 12:51:00,
2014-01-25 07:56:00,18.5,-16.9,30.00,South,180,5.8,5.8,19,0.00,,,0.00,WUHU216HW,2014-01-25 12:56:00,
2014-01-25 08:01:00,18.6,-16.8,30.01,SSW,203,0.0,5.8,19,0.00,,,0.00,WUHU216HW,2014-01-25 13:01:00,
2014-01-25 08:06:00,18.8,-16.7,30.00,South,180,0.0,3.3,19,0.00,,,0.00,WUHU216HW,2014-01-25 13:06:00,
2014-01-25 08:11:00,18.8,-16.7,30.00,South,180,0.0,4.4,19,0.00,,,0.00,WUHU216HW,2014-01-25 13:11:00,
2014-01-25 08:16:00,19.0,-16.5,30.00,SSW,203,4.6,8.9,19,0.00,,,0.00,WUHU216HW,2014-01-25 13:16:00,
2014-01-25 08:21:00,19.2,-16.3,30.00,SSW,203,0.0,8.9,19,0.00,,,0.00,WUHU216HW,2014-01-25 13:21:00,
2014-01-25 08:26:00,19.5,-16.1,29.99,South,180,2.2,5.5,19,0.00,,,0.00,WUHU216HW,2014-01-25 13:26:00,
2014-01-25 08:31:00,19.9,-15.7,29.98,South,180,0.0,2.2,19,0.00,,,0.00,WUHU216HW,2014-01-25 13:31:00,
2014-01-25 08:36:00,20.3,-15.4,29.99,South,180,2.0,3.1,19,0.00,,,0.00,WUHU216HW,2014-01-25 13:36:00,
2014-01-25 08:41:00,20.8,-15.0,29.98,SW,225,3.5,3.5,19,0.00,,,0.00,WUHU216HW,2014-01-25 13:41:00,
2014-01-25 08:46:00,21.2,-14.7,29.98,South,180,0.8,3.5,19,0.00,,,0.00,WUHU216HW,2014-01-25 13:46:00,
2014-01-25 08:51:00,21.3,-14.6,29.97,SSW,203,9.6,9.6,19,0.00,,,0.00,WUHU216HW,2014-01-25 13:51:00,
2014-01-25 08:56:00,21.5,-14.4,29.97,SSW,203,0.0,9.6,19,0.00,,,0.00,WUHU216HW,2014-01-25 13:56:00,
2014-01-25 09:01:00,22.1,-13.9,29.97,North,0,3.3,3.3,19,0.00,,,0.00,WUHU216HW,2014-01-25 14:01:00,
2014-01-25 09:06:00,22.4,-13.7,29.97,South,180,0.0,12.0,19,0.00,,,0.00,WUHU216HW,2014-01-25 14:06:00,
2014-01-25 09:11:00,22.8,-13.3,29.97,South,180,0.0,12.0,19,0.00,,,0.00,WUHU216HW,2014-01-25 14:11:00,
2014-01-25 09:16:00,23.1,-13.1,29.96,South,180,0.0,5.8,19,0.00,,,0.00,WUHU216HW,2014-01-25 14:16:00,
2014-01-25 09:21:00,23.3,-12.9,29.97,South,180,0.0,5.8,19,0.00,,,0.00,WUHU216HW,2014-01-25 14:21:00,
2014-01-25 09:26:00,23.7,-12.6,29.96,South,180,0.0,9.8,19,0.00,,,0.00,WUHU216HW,2014-01-25 14:26:00,
2014-01-25 09:31:00,23.7,-12.6,29.95,SSE,158,1.1,12.0,19,0.00,,,0.00,WUHU216HW,2014-01-25 14:31:00,
2014-01-25 09:36:00,24.0,-12.3,29.96,South,180,1.7,12.0,19,0.00,,,0.00,WUHU216HW,2014-01-25 14:36:00,
2014-01-25 09:41:00,24.4,-12.0,29.95,South,180,5.3,8.0,19,0.00,,,0.00,WUHU216HW,2014-01-25 14:41:00,
2014-01-25 09:46:00,24.6,-11.8,29.95,South,180,7.1,8.0,19,0.00,,,0.00,WUHU216HW,2014-01-25 14:46:00,
2014-01-25 09:51:00,24.9,-11.6,29.94,SSW,203,3.8,7.1,19,0.00,,,0.00,WUHU216HW,2014-01-25 14:51:00,
2014-01-25 09:56:00,25.3,-11.2,29.93,South,180,0.0,7.1,19,0.00,,,0.00,WUHU216HW,2014-01-25 14:56:00,
2014-01-25 10:01:00,25.7,-10.9,29.92,South,180,3.5,3.5,19,0.00,,,0.00,WUHU216HW,2014-01-25 15:01:00,
2014-01-25 10:06:00,25.7,-10.9,29.93,South,180,2.6,3.5,19,0.00,,,0.00,WUHU216HW,2014-01-25 15:06:00,
2014-01-25 10:11:00,26.2,-10.5,29.92,South,180,6.4,6.4,19,0.00,,,0.00,WUHU216HW,2014-01-25 15:11:00,
2014-01-25 10:16:00,26.7,-10.1,29.92,South,180,0.0,6.4,19,0.00,,,0.00,WUHU216HW,2014-01-25 15:16:00,
2014-01-25 10:21:00,27.1,-9.7,29.93,SW,225,0.0,10.7,19,0.00,,,0.00,WUHU216HW,2014-01-25 15:21:00,
2014-01-25 10:26:00,27.3,-9.6,29.92,SSW,203,0.0,10.7,19,0.00,,,0.00,WUHU216HW,2014-01-25 15:26:00,
2014-01-25 10:31:00,27.5,-9.4,29.92,SSE,158,0.0,10.5,19,0.00,,,0.00,WUHU216HW,2014-01-25 15:31:00,
2014-01-25 10:36:00,27.8,-9.2,29.91,South,180,4.9,6.0,19,0.00,,,0.00,WUHU216HW,2014-01-25 15:36:00,
2014-01-25 10:41:00,28.0,-9.0,29.90,South,180,4.2,14.0,19,0.00,,,0.00,WUHU216HW,2014-01-25 15:41:00,
2014-01-25 10:46:00,28.2,-8.8,29.89,South,180,10.7,14.0,19,0.00,,,0.00,WUHU216HW,2014-01-25 15:46:00,
2014-01-25 10:51:00,28.5,-8.6,29.88,SSW,203,0.6,11.8,19,0.00,,,0.00,WUHU216HW,2014-01-25 15:51:00,
2014-01-25 10:56:00,28.7,-8.4,29.88,South,180,0.0,10.7,19,0.00,,,0.00,WUHU216HW,2014-01-25 15:56:00,
2014-01-25 11:01:00,28.9,-8.2,29.88,South,180,5.1,10.0,19,0.00,,,0.00,WUHU216HW,2014-01-25 16:01:00,
2014-01-25 11:06:00,29.3,-7.9,29.87,South,180,0.0,5.3,19,0.00,,,0.00,WUHU216HW,2014-01-25 16:06:00,
2014-01-25 11:11:00,29.4,-7.8,29.86,SSE,158,0.0,5.1,19,0.00,,,0.00,WUHU216HW,2014-01-25 16:11:00,
2014-01-25 11:16:00,29.6,-7.7,29.86,SSW,203,8.9,8.9,19,0.00,,,0.00,WUHU216HW,2014-01-25 16:16:00,
2014-01-25 11:21:00,29.8,-7.5,29.86,NNE,23,0.0,8.9,19,0.00,,,0.00,WUHU216HW,2014-01-25 16:21:00,
2014-01-25 11:26:00,30.2,-7.2,29.85,South,180,1.3,13.1,19,0.00,,,0.00,WUHU216HW,2014-01-25 16:26:00,
2014-01-25 11:31:00,30.3,-7.1,29.84,SW,225,0.0,13.1,19,0.00,,,0.00,WUHU216HW,2014-01-25 16:31:00,
2014-01-25 11:36:00,30.7,-6.7,29.83,South,180,5.1,5.1,19,0.00,,,0.00,WUHU216HW,2014-01-25 16:36:00,
2014-01-25 11:41:00,31.1,-6.4,29.82,SW,225,4.2,5.1,19,0.00,,,0.00,WUHU216HW,2014-01-25 16:41:00,
2014-01-25 11:46:00,31.4,-6.2,29.82,SW,225,7.1,7.1,19,0.00,,,0.00,WUHU216HW,2014-01-25 16:46:00,
2014-01-25 11:51:00,31.6,-6.0,29.82,South,180,4.0,7.1,19,0.00,,,0.00,WUHU216HW,2014-01-25 16:51:00,
2014-01-25 11:56:00,32.3,-5.4,29.82,South,180,9.6,9.6,19,0.00,,,0.00,WUHU216HW,2014-01-25 16:56:00,
2014-01-25 12:01:00,32.7,-5.1,29.83,SW,225,0.0,9.6,19,0.00,,,0.00,WUHU216HW,2014-01-25 17:01:00,
2014-01-25 12:06:00,32.9,-4.9,29.81,SSE,158,0.2,9.6,19,0.00,,,0.00,WUHU216HW,2014-01-25 17:06:00,
2014-01-25 12:11:00,33.2,-4.7,29.81,South,180,6.0,6.0,19,0.00,,,0.00,WUHU216HW,2014-01-25 17:11:00,
2014-01-25 12:16:00,33.4,-4.5,29.80,South,180,6.9,6.9,19,0.00,,,0.00,WUHU216HW,2014-01-25 17:16:00,
2014-01-25 12:21:00,33.6,-4.3,29.80,SSW,203,0.4,6.9,19,0.00,,,0.00,WUHU216HW,2014-01-25 17:21:00,
2014-01-25 12:26:00,33.8,-4.2,29.78,South,180,4.2,4.2,19,0.00,,,0.00,WUHU216HW,2014-01-25 17:26:00,
2014-01-25 12:31:00,34.1,-3.9,29.78,SW,225,0.0,4.2,19,0.00,,,0.00,WUHU216HW,2014-01-25 17:31:00,
2014-01-25 12:36:00,34.5,-3.6,29.76,South,180,0.0,4.2,19,0.00,,,0.00,WUHU216HW,2014-01-25 17:36:00,
2014-01-25 12:41:00,34.8,-3.3,29.75,SW,225,2.0,5.1,19,0.00,,,0.00,WUHU216HW,2014-01-25 17:41:00,
2014-01-25 12:46:00,35.0,-3.2,29.75,SSW,203,4.2,5.1,19,0.00,,,0.00,WUHU216HW,2014-01-25 17:46:00,
2014-01-25 12:51:00,35.4,-2.8,29.74,South,180,8.7,8.7,19,0.00,,,0.00,WUHU216HW,2014-01-25 17:51:00,
2014-01-25 12:56:00,35.7,-2.6,29.74,South,180,4.0,8.7,19,0.00,,,0.00,WUHU216HW,2014-01-25 17:56:00,
2014-01-25 13:01:00,36.1,-2.3,29.74,NE,45,2.4,8.7,19,0.00,,,0.00,WUHU216HW,2014-01-25 18:01:00,
2014-01-25 13:06:00,36.5,-1.9,29.73,South,180,0.0,6.0,19,0.00,,,0.00,WUHU216HW,2014-01-25 18:06:00,
2014-01-25 13:11:00,36.3,-2.1,29.74,NE,45,6.2,6.2,19,0.00,,,0.00,WUHU216HW,2014-01-25 18:11:00,
2014-01-25 13:16:00,36.3,-2.1,29.74,SSW,203,0.0,6.2,19,0.00,,,0.00,WUHU216HW,2014-01-25 18:16:00,
2014-01-25 13:21:00,36.3,-2.1,29.73,SSE,158,0.0,3.8,19,0.00,,,0.00,WUHU216HW,2014-01-25 18:21:00,
2014-01-25 13:26:00,36.5,-1.9,29.72,SSW,203,0.0,1.7,19,0.00,,,0.00,WUHU216HW,2014-01-25 18:26:00,
2014-01-25 13:31:00,36.8,-1.7,29.71,South,180,0.8,10.5,19,0.00,,,0.00,WUHU216HW,2014-01-25 18:31:00,
2014-01-25 13:36:00,37.5,-1.1,29.71,WNW,293,0.4,10.5,19,0.00,,,0.00,WUHU216HW,2014-01-25 18:36:00,
2014-01-25 13:41:00,37.7,-0.9,29.70,NE,45,0.0,8.0,19,0.00,,,0.00,WUHU216HW,2014-01-25 18:41:00,
2014-01-25 13:46:00,38.3,-0.4,29.70,South,180,10.5,10.5,19,0.00,,,0.00,WUHU216HW,2014-01-25 18:46:00,
2014-01-25 13:51:00,38.8,0.0,29.70,South,180,4.6,10.5,19,0.00,,,0.00,WUHU216HW,2014-01-25 18:51:00,
2014-01-25 13:56:00,39.2,0.3,29.69,South,180,0.0,10.5,19,0.00,,,0.00,WUHU216HW,2014-01-25 18:56:00,
2014-01-25 14:01:00,39.5,0.6,29.69,SSW,203,8.0,8.0,19,0.00,,,0.00,WUHU216HW,2014-01-25 19:01:00,
2014-01-25 14:06:00,39.5,0.6,29.69,North,0,7.6,8.0,19,0.00,,,0.00,WUHU216HW,2014-01-25 19:06:00,
2014-01-25 14:11:00,39.7,0.7,29.68,NE,45,3.5,8.0,19,0.00,,,0.00,WUHU216HW,2014-01-25 19:11:00,
2014-01-25 14:16:00,39.9,0.9,29.69,South,180,8.5,8.5,19,0.00,,,0.00,WUHU216HW,2014-01-25 19:16:00,
2014-01-25 14:21:00,39.9,0.9,29.69,SW,225,0.0,8.5,19,0.00,,,0.00,WUHU216HW,2014-01-25 19:21:00,
2014-01-25 14:26:00,40.1,1.1,29.69,SW,225,5.1,8.5,19,0.00,,,0.00,WUHU216HW,2014-01-25 19:26:00,
2014-01-25 14:31:00,40.1,1.1,29.69,South,180,6.2,6.2,19,0.00,,,0.00,WUHU216HW,2014-01-25 19:31:00,
2014-01-25 14:36:00,40.1,1.1,29.68,South,180,6.2,6.2,19,0.00,,,0.00,WUHU216HW,2014-01-25 19:36:00,
2014-01-25 14:41:00,40.1,1.1,29.68,SSW,203,5.8,6.2,19,0.00,,,0.00,WUHU216HW,2014-01-25 19:41:00,
2014-01-25 14:46:00,40.1,1.1,29.68,SSW,203,7.3,9.3,19,0.00,,,0.00,WUHU216HW,2014-01-25 19:46:00,
2014-01-25 14:51:00,40.2,1.2,29.68,South,180,10.7,10.7,19,0.00,,,0.00,WUHU216HW,2014-01-25 19:51:00,
2014-01-25 14:56:00,40.4,1.3,29.68,South,180,0.0,10.7,19,0.00,,,0.00,WUHU216HW,2014-01-25 19:56:00,
2014-01-25 15:01:00,40.6,1.5,29.68,SSW,203,4.6,10.7,19,0.00,,,0.00,WUHU216HW,2014-01-25 20:01:00,
2014-01-25 15:06:00,40.8,1.7,29.68,SW,225,11.6,11.6,19,0.00,,,0.00,WUHU216HW,2014-01-25 20:06:00,
2014-01-25 15:11:00,41.0,1.8,29.68,North,0,0.0,11.6,19,0.00,,,0.00,WUHU216HW,2014-01-25 20:11:00,
2014-01-25 15:16:00,41.3,2.1,29.68,SW,225,4.4,11.6,19,0.00,,,0.00,WUHU216HW,2014-01-25 20:16:00,
2014-01-25 15:21:00,41.3,2.1,29.68,SW,225,4.4,4.4,19,0.00,,,0.00,WUHU216HW,2014-01-25 20:21:00,
2014-01-25 15:26:00,41.3,2.1,29.68,SW,225,4.4,4.4,19,0.00,,,0.00,WUHU216HW,2014-01-25 20:26:00,
2014-01-25 15:31:00,41.3,2.1,29.67,SW,225,4.4,4.4,19,0.00,,,0.00,WUHU216HW,2014-01-25 20:31:00,
2014-01-25 15:36:00,41.3,2.1,29.68,South,180,3.1,5.3,19,0.00,,,0.00,WUHU216HW,2014-01-25 20:36:00,
2014-01-25 15:41:00,41.5,2.2,29.67,SW,225,8.0,8.5,19,0.00,,,0.00,WUHU216HW,2014-01-25 20:41:00,
2014-01-25 15:46:00,41.5,2.2,29.68,SW,225,8.2,11.8,19,0.00,,,0.00,WUHU216HW,2014-01-25 20:46:00,
2014-01-25 15:51:00,41.7,2.4,29.68,NNE,23,0.0,11.8,19,0.00,,,0.00,WUHU216HW,2014-01-25 20:51:00,
2014-01-25 15:56:00,41.7,2.4,29.67,South,180,7.3,8.2,19,0.00,,,0.00,WUHU216HW,2014-01-25 20:56:00,
2014-01-25 16:01:00,41.7,2.4,29.68,SW,225,4.9,7.3,19,0.00,,,0.00,WUHU216HW,2014-01-25 21:01:00,
2014-01-25 16:06:00,41.7,2.4,29.68,SW,225,4.9,7.3,19,0.00,,,0.00,WUHU216HW,2014-01-25 21:06:00,
2014-01-25 16:11:00,41.7,2.4,29.68,SW,225,4.9,4.9,19,0.00,,,0.00,WUHU216HW,2014-01-25 21:11:00,
2014-01-25 16:16:00,41.9,2.6,29.68,SW,225,4.0,4.9,19,0.00,,,0.00,WUHU216HW,2014-01-25 21:16:00,
2014-01-25 16:18:00,41.9,2.6,29.68,SW,225,4.0,4.9,19,0.00,,,0.00,WUHU216HW,2014-01-25 21:18:00,
2014-01-25 16:23:00,41.9,2.6,29.69,SW,225,4.0,4.0,19,0.00,,,0.00,WUHU216HW,2014-01-25 21:23:00,
2014-01-25 16:28:00,41.7,2.4,29.69,NE,45,5.5,5.5,19,0.00,,,0.00,WUHU216HW,2014-01-25 21:28:00,
2014-01-25 16:33:00,41.7,2.4,29.69,SW,225,0.0,5.5,19,0.00,,,0.00,WUHU216HW,2014-01-25 21:33:00,
2014-01-25 16:38:00,41.7,2.4,29.69,SW,225,0.0,5.5,19,0.00,,,0.00,WUHU216HW,2014-01-25 21:38:00,
2014-01-25 16:43:00,41.7,2.4,29.70,SW,225,0.0,0.0,19,0.00,,,0.00,WUHU216HW,2014-01-25 21:43:00,
2014-01-25 16:48:00,41.7,2.4,29.70,SW,225,0.0,0.0,19,0.00,,,0.00,WUHU216HW,2014-01-25 21:48:00,
2014-01-25 16:53:00,41.7,2.4,29.70,SW,225,0.0,0.0,19,0.00,,,0.00,WUHU216HW,2014-01-25 21:53:00,
2014-01-25 16:58:00,41.7,2.4,29.70,SW,225,0.0,0.0,19,0.00,,,0.00,WUHU216HW,2014-01-25 21:58:00,
2014-01-25 17:03:00,41.7,2.4,29.70,SW,225,0.0,0.0,19,0.00,,,0.00,WUHU216HW,2014-01-25 22:03:00,
2014-01-25 17:08:00,41.7,2.4,29.71,SW,225,0.0,0.0,19,0.00,,,0.00,WUHU216HW,2014-01-25 22:08:00,
2014-01-25 17:13:00,41.7,2.4,29.71,SW,225,0.0,0.0,19,0.00,,,0.00,WUHU216HW,2014-01-25 22:13:00,
2014-01-25 17:52:00,41.1,1.9,29.73,SSW,203,0.0,0.0,19,0.00,,,0.00,WUHU216HW,2014-01-25 22:52:00,
2014-01-25 17:57:00,41.1,1.9,29.73,NNE,23,2.0,2.0,19,0.00,,,0.00,WUHU216HW,2014-01-25 22:57:00,
2014-01-25 18:02:00,41.1,1.9,29.73,SSW,203,0.2,2.0,19,0.00,,,0.00,WUHU216HW,2014-01-25 23:02:00,
2014-01-25 18:07:00,41.1,1.9,29.73,South,180,2.2,2.2,19,0.00,,,0.00,WUHU216HW,2014-01-25 23:07:00,
2014-01-25 18:12:00,41.0,1.8,29.73,SW,225,4.2,4.2,19,0.00,,,0.00,WUHU216HW,2014-01-25 23:12:00,
2014-01-25 18:17:00,40.6,1.5,29.74,SSE,158,0.0,6.7,19,0.00,,,0.00,WUHU216HW,2014-01-25 23:17:00,
2014-01-25 18:22:00,40.6,1.5,29.74,NNE,23,0.0,6.7,19,0.00,,,0.00,WUHU216HW,2014-01-25 23:22:00,
2014-01-25 18:27:00,40.6,1.5,29.75,SSW,203,0.0,0.0,19,0.00,,,0.00,WUHU216HW,2014-01-25 23:27:00,
2014-01-25 18:32:00,40.6,1.5,29.75,SSW,203,2.4,2.4,19,0.00,,,0.00,WUHU216HW,2014-01-25 23:32:00,
2014-01-25 18:37:00,40.2,1.2,29.75,SW,225,0.0,2.4,19,0.00,,,0.00,WUHU216HW,2014-01-25 23:37:00,
2014-01-25 18:42:00,40.1,1.1,29.75,SSW,203,0.0,2.4,19,0.00,,,0.00,WUHU216HW,2014-01-25 23:42:00,
2014-01-25 18:47:00,39.9,0.9,29.75,SSW,203,0.0,0.0,19,0.00,,,0.00,WUHU216HW,2014-01-25 23:47:00,
2014-01-25 18:52:00,39.9,0.9,29.75,NE,45,0.0,0.6,19,0.00,,,0.00,WUHU216HW,2014-01-25 23:52:00,
2014-01-25 18:57:00,39.7,0.7,29.75,SSW,203,3.3,9.6,19,0.00,,,0.00,WUHU216HW,2014-01-25 23:57:00,
2014-01-25 19:02:00,39.7,0.7,29.76,SSW,203,0.0,9.6,19,0.00,,,0.00,WUHU216HW,2014-01-26 00:02:00,
2014-01-25 19:07:00,39.5,0.6,29.76,SSW,203,9.1,9.1,19,0.00,,,0.00,WUHU216HW,2014-01-26 00:07:00,
2014-01-25 19:12:00,39.5,0.6,29.76,NNE,23,0.4,9.1,19,0.00,,,0.00,WUHU216HW,2014-01-26 00:12:00,
2014-01-25 19:17:00,39.3,0.4,29.76,North,0,7.6,9.1,19,0.00,,,0.00,WUHU216HW,2014-01-26 00:17:00,
2014-01-25 19:22:00,39.2,0.3,29.76,SSE,158,0.0,7.6,19,0.00,,,0.00,WUHU216HW,2014-01-26 00:22:00,
2014-01-25 19:27:00,39.2,0.3,29.76,South,180,4.4,7.6,19,0.00,,,0.00,WUHU216HW,2014-01-26 00:27:00,
2014-01-25 19:32:00,39.0,0.2,29.76,SSW,203,0.0,4.4,19,0.00,,,0.00,WUHU216HW,2014-01-26 00:32:00,
2014-01-25 19:37:00,39.0,0.2,29.77,SW,225,8.2,8.2,19,0.00,,,0.00,WUHU216HW,2014-01-26 00:37:00,
2014-01-25 19:42:00,38.8,0.0,29.78,SW,225,1.5,8.2,19,0.00,,,0.00,WUHU216HW,2014-01-26 00:42:00,
2014-01-25 19:47:00,38.8,0.0,29.78,SSW,203,0.0,8.2,19,0.00,,,0.00,WUHU216HW,2014-01-26 00:47:00,
2014-01-25 19:52:00,38.8,0.0,29.78,SW,225,0.0,4.9,19,0.00,,,0.00,WUHU216HW,2014-01-26 00:52:00,
2014-01-25 19:57:00,38.6,-0.2,29.78,SW,225,2.9,4.9,19,0.00,,,0.00,WUHU216HW,2014-01-26 00:57:00,
2014-01-25 20:02:00,38.6,-0.2,29.78,NNE,23,0.0,2.9,19,0.00,,,0.00,WUHU216HW,2014-01-26 01:02:00,
2014-01-25 20:07:00,38.4,-0.3,29.78,SW,225,1.3,1.3,19,0.00,,,0.00,WUHU216HW,2014-01-26 01:07:00,
2014-01-25 20:12:00,38.4,-0.3,29.78,North,0,0.0,1.7,19,0.00,,,0.00,WUHU216HW,2014-01-26 01:12:00,
2014-01-25 20:17:00,38.3,-0.4,29.78,NNE,23,0.0,5.5,19,0.00,,,0.00,WUHU216HW,2014-01-26 01:17:00,
2014-01-25 20:22:00,38.3,-0.4,29.78,SSW,203,0.0,5.5,19,0.00,,,0.00,WUHU216HW,2014-01-26 01:22:00,
2014-01-25 20:27:00,38.1,-0.6,29.78,SSE,158,2.2,3.1,19,0.00,,,0.00,WUHU216HW,2014-01-26 01:27:00,
2014-01-25 20:32:00,38.1,-0.6,29.78,SW,225,4.2,4.2,19,0.00,,,0.00,WUHU216HW,2014-01-26 01:32:00,
2014-01-25 20:37:00,37.9,-0.8,29.78,SW,225,0.0,4.2,19,0.00,,,0.00,WUHU216HW,2014-01-26 01:37:00,
2014-01-25 20:42:00,37.7,-0.9,29.78,SSW,203,3.8,4.6,19,0.00,,,0.00,WUHU216HW,2014-01-26 01:42:00,
2014-01-25 20:47:00,37.7,-0.9,29.78,SW,225,2.0,4.6,19,0.00,,,0.00,WUHU216HW,2014-01-26 01:47:00,
2014-01-25 20:52:00,37.7,-0.9,29.78,SSW,203,5.3,5.3,19,0.00,,,0.00,WUHU216HW,2014-01-26 01:52:00,
2014-01-25 20:57:00,37.7,-0.9,29.78,SSW,203,5.3,5.3,19,0.00,,,0.00,WUHU216HW,2014-01-26 01:57:00,
2014-01-25 21:02:00,37.5,-1.1,29.79,North,0,0.0,5.3,19,0.00,,,0.00,WUHU216HW,2014-01-26 02:02:00,
2014-01-25 21:07:00,37.4,-1.2,29.79,SW,225,0.0,8.0,19,0.00,,,0.00,WUHU216HW,2014-01-26 02:07:00,
2014-01-25 21:12:00,37.2,-1.3,29.79,SSW,203,0.0,8.0,19,0.00,,,0.00,WUHU216HW,2014-01-26 02:12:00,
2014-01-25 21:17:00,37.0,-1.5,29.78,SW,225,0.0,6.2,19,0.00,,,0.00,WUHU216HW,2014-01-26 02:17:00,
2014-01-25 21:22:00,37.2,-1.3,29.78,NE,45,0.0,2.2,19,0.00,,,0.00,WUHU216HW,2014-01-26 02:22:00,
2014-01-25 21:27:00,37.0,-1.5,29.79,North,0,0.0,1.3,19,0.00,,,0.00,WUHU216HW,2014-01-26 02:27:00,
2014-01-25 21:32:00,37.0,-1.5,29.79,SSW,203,0.0,0.0,19,0.00,,,0.00,WUHU216HW,2014-01-26 02:32:00,
2014-01-25 21:37:00,36.8,-1.7,29.79,SSE,158,0.0,0.0,19,0.00,,,0.00,WUHU216HW,2014-01-26 02:37:00,
2014-01-25 21:42:00,36.5,-1.9,29.79,SSW,203,0.0,0.0,19,0.00,,,0.00,WUHU216HW,2014-01-26 02:42:00,
2014-01-25 21:47:00,36.6,-1.8,29.79,SSW,203,0.0,0.0,19,0.00,,,0.00,WUHU216HW,2014-01-26 02:47:00,
2014-01-25 21:52:00,36.5,-1.9,29.80,SSW,203,0.0,1.3,19,0.00,,,0.00,WUHU216HW,2014-01-26 02:52:00,
2014-01-25 21:57:00,36.5,-1.9,29.80,SW,225,0.0,1.7,19,0.00,,,0.00,WUHU216HW,2014-01-26 02:57:00,
2014-01-25 22:02:00,36.3,-2.1,29.79,SSW,203,0.0,1.7,19,0.00,,,0.00,WUHU216HW,2014-01-26 03:02:00,
2014-01-25 22:07:00,36.3,-2.1,29.80,NNE,23,1.3,1.3,19,0.00,,,0.00,WUHU216HW,2014-01-26 03:07:00,
2014-01-25 22:12:00,36.1,-2.3,29.80,SW,225,0.0,4.2,19,0.00,,,0.00,WUHU216HW,2014-01-26 03:12:00,
2014-01-25 22:17:00,36.1,-2.3,29.80,SSW,203,0.0,7.3,19,0.00,,,0.00,WUHU216HW,2014-01-26 03:17:00,
2014-01-25 22:22:00,35.9,-2.4,29.80,South,180,9.3,9.3,19,0.00,,,0.00,WUHU216HW,2014-01-26 03:22:00,
2014-01-25 22:27:00,35.9,-2.4,29.81,SW,225,0.0,9.3,19,0.00,,,0.00,WUHU216HW,2014-01-26 03:27:00,
2014-01-25 22:32:00,35.9,-2.4,29.81,South,180,0.0,6.9,19,0.00,,,0.00,WUHU216HW,2014-01-26 03:32:00,
2014-01-25 22:37:00,35.7,-2.6,29.81,SSW,203,0.0,0.0,19,0.00,,,0.00,WUHU216HW,2014-01-26 03:37:00,
2014-01-25 22:42:00,35.7,-2.6,29.81,NNE,23,0.0,3.1,19,0.00,,,0.00,WUHU216HW,2014-01-26 03:42:00,
2014-01-25 22:47:00,35.7,-2.6,29.82,SW,225,0.0,3.1,19,0.00,,,0.00,WUHU216HW,2014-01-26 03:47:00,
2014-01-25 22:52:00,35.6,-2.7,29.82,South,180,2.0,4.6,19,0.00,,,0.00,WUHU216HW,2014-01-26 03:52:00,
2014-01-25 22:57:00,35.4,-2.8,29.82,SSE,158,3.3,4.6,19,0.00,,,0.00,WUHU216HW,2014-01-26 03:57:00,
2014-01-25 23:02:00,35.4,-2.8,29.82,SSW,203,2.9,3.3,19,0.00,,,0.00,WUHU216HW,2014-01-26 04:02:00,
2014-01-25 23:07:00,35.2,-3.0,29.82,SSW,203,0.0,3.3,19,0.00,,,0.00,WUHU216HW,2014-01-26 04:07:00,
2014-01-25 23:12:00,35.2,-3.0,29.83,SW,225,0.0,1.3,19,0.00,,,0.00,WUHU216HW,2014-01-26 04:12:00,
2014-01-25 23:17:00,35.2,-3.0,29.83,SSW,203,0.0,1.3,19,0.00,,,0.00,WUHU216HW,2014-01-26 04:17:00,
2014-01-25 23:22:00,35.2,-3.0,29.83,SW,225,0.0,1.1,19,0.00,,,0.00,WUHU216HW,2014-01-26 04:22:00,
2014-01-25 23:27:00,35.0,-3.2,29.83,North,0,0.0,0.0,19,0.00,,,0.00,WUHU216HW,2014-01-26 04:27:00,
2014-01-25 23:32:00,35.0,-3.2,29.83,SSW,203,0.0,0.0,19,0.00,,,0.00,WUHU216HW,2014-01-26 04:32:00,
2014-01-25 23:37:00,35.0,-3.2,29.83,SW,225,0.0,0.0,19,0.00,,,0.00,WUHU216HW,2014-01-26 04:37:00,
2014-01-25 23:42:00,35.0,-3.2,29.84,SSW,203,0.0,0.0,19,0.00,,,0.00,WUHU216HW,2014-01-26 04:42:00,
2014-01-25 23:47:00,34.8,-3.3,29.83,SSW,203,0.0,0.0,19,0.00,,,0.00,WUHU216HW,2014-01-26 04:47:00,
2014-01-25 23:52:00,34.7,-3.4,29.84,North,0,0.0,0.0,19,0.00,,,0.00,WUHU216HW,2014-01-26 04:52:00,
2014-01-25 23:57:00,34.7,-3.4,29.83,SSW,203,2.4,2.4,19,0.00,,,0.00,WUHU216HW,2014-01-26 04:57:00,